{"data":{"norad_id":67742,"intl_designator":"2026-026X","name":"STARLINK-36693","alt_names":[],"object_type":"PAYLOAD","status":"ACTIVE","operator":null,"country":"US","launch_date":"2026-02-11","launch_site_code":"AFWTR","launch_vehicle":null,"mission":null,"orbit_class":"UNKNOWN","rcs_meters":null,"size_class":null,"mass_kg":null,"dimensions":null,"purposes":["comms"],"wikipedia_slug":null,"has_3d_model":false,"image_url":null,"decayed_at":null,"tle_current":{"epoch":"2026-05-25T03:02:22.273152Z","epoch_age_seconds":61349,"freshness":"FRESH","line1":"1 67742U 26026X   26145.12664668  .00008033  00000+0  25091-3 0  9992","line2":"2 67742  97.2844 198.7047 0001588  91.1903 268.9521 15.33441204 15841","mean_motion":15.33441204,"eccentricity":0.0001588,"inclination_deg":97.2844,"raan_deg":198.7047,"arg_perigee_deg":91.1903,"mean_anomaly_deg":268.9521,"bstar":0.00025091,"rev_number":1584,"period_min":93.906437119581,"perigee_km":464.46769052148,"apogee_km":466.64124693195,"semimajor_km":6843.6914687267,"source":"CELESTRAK","updated_at":"2026-05-25T13:38:21.690986Z"}}}